WESTFORD NEEDLES, 3257

Orbit data source: Space-Track

WESTFORD NEEDLES, 3257 is space debris in LEO originally from a launch on Thu, 09 May 1963 UTC launched from the Air Force Western Test Range (AFWTR). Debris objects in space refer to the collection of defunct objects orbiting the Earth. Examples of debris include non-operational satellites, rocket bodies, and fragments generated from explosions, collisions, or faulty payload assembly.

Loading next visibility...
Identifier
3257, 1963-014BX
Orbit
LEO
Country
Flag of USUS
Related business
Manufacturer
Unknown
Mission
Spacecraft
Bus & Motor
Unknown
Mass
Unknown
Launch date (UTC)
1963-05-09 (63 years ago)
Launch vehicle
Unknown
Launch site
Air Force Western Test Range (AFWTR)
Object type
Payload
Rocket body
Debris
Shape & HBR
Unknown shape, 1.1 m
Radar Cross Section
Medium (>0.1 m² and <1 m²)

Expand to show TLE details & history
Last TLE update: 2 days ago

TLE from 2 days ago
0 WESTFORD NEEDLES
1 03257U 63014BX  26125.06712505 -.00000005  00000-0 -32123-2 0  9993
2 03257  87.3285 152.2417 0406896 205.3841 152.6511  8.65529973 56208
Epoch: 2026-05-05T01:36Z
TLE epoch observation values (Epoch: 2026-05-05T01:36:39.604Z)
Latitude
-0.00002°
Longitude
-94.87061°
Altitude
4,009.851 km
Speed
6.081 km/s
True Right ascension
10h 08m 58s
True Declination
0° 00' 00"
Sunlit
Object was in daylight at epoch
Visualization orbit readout
Latitude
Unknown
Longitude
Unknown
Altitude
Unknown
Speed
Unknown
Apparent Right ascension
Unknown
Apparent Declination
Unknown
Sunlit
N/A
Visualization observer readout
Local Sidereal Time
03:43:46
Azimuth
Unknown
Elevation
Unknown
Doppler factor
Unknown
Orbital elements
Apogee altitude
4,047.607 km
Perigee altitude
3,232.341 km
Semi-major axis
10,018.111 km
Eccentricity
0.04069
Inclination
87.3285°
RAAN
152.2417°
Arg. of periapsis
205.3841°
True anomaly
154.7°
Mean anomaly
152.6511°
Eccentric anomaly
153.68461°
Mean motion
2.16453 °/min
Orbital period
166.32 mins
BSTAR
-0.0032123

Documentation

Showing up to 5 results
|